Wind_Speed
26 26 26 25 25 25 25 24 24 23 23 22 22 22 21 21 21 20 20 20 20 19 19 19 19 19 19 19 19 19 19 20 20 20 20 19 19 19 20 19 19 19 19 19
27 27 27 27 27 27 27 26 26 25 25 24 24 23 23 22 22 22 21 21 20 21 21 21 21 20 20 19 19 20 20 20 21 21 20 20 20 19 19 20 20 20 19 20
28 29 29 28 26 27 28 27 27 28 27 26 25 24 24 23 22 22 22 22 22 22 22 22 22 21 21 21 20 20 20 20 21 21 20 20 20 20 20 20 21 21 21 20
29 30 31 29 28 28 28 28 28 29 28 27 26 26 25 24 24 23 23 23 23 22 23 23 22 22 22 22 22 21 20 20 21 21 21 21 21 21 20 20 21 21 21 22
31 31 31 31 30 30 29 30 30 30 30 29 28 27 27 26 25 24 25 25 24 23 23 24 24 24 24 24 23 22 20 20 20 21 22 23 23 22 21 21 21 22 23 22
31 32 31 32 32 31 31 32 31 31 31 31 30 29 29 28 27 26 26 26 26 26 25 24 25 25 25 25 25 24 22 21 21 21 22 23 23 23 22 22 22 22 23 22
32 32 32 33 32 31 32 33 32 31 32 31 32 32 31 30 30 29 28 28 28 28 27 26 27 27 26 25 26 25 24 23 22 22 22 23 23 22 22 22 22 23 23 23
32 33 34 33 32 32 32 32 31 31 31 31 31 32 32 31 31 30 29 29 29 30 30 29 29 29 29 28 27 26 26 26 26 24 24 24 23 23 22 22 23 24 24 24
32 33 34 34 33 33 33 33 32 32 32 33 33 32 32 31 31 30 30 30 31 31 31 31 30 30 30 30 29 27 27 27 27 27 25 24 24 24 24 24 24 25 25 25
33 34 35 34 34 35 34 34 34 34 34 33 33 32 32 32 31 31 31 31 31 32 32 32 32 31 31 31 30 29 28 28 27 26 27 26 26 25 25 25 26 26 26 26
34 34 35 35 35 34 34 33 33 34 33 32 32 32 32 32 32 32 32 32 32 32 33 33 33 33 32 32 31 30 30 29 29 28 27 27 27 27 27 27 27 27 28 27
33 33 33 33 34 34 33 33 33 34 34 33 32 32 32 33 33 33 33 33 33 33 34 34 34 34 34 33 32 32 31 31 29 29 29 28 28 29 29 28 28 28 27 27
31 31 32 32 32 32 32 32 33 33 33 33 33 33 33 33 34 34 34 33 33 34 34 34 35 34 34 34 34 33 33 32 31 31 31 31 30 29 29 29 29 29 28 28
30 31 32 32 32 32 31 31 32 32 33 34 34 35 35 35 35 34 34 33 33 34 34 34 35 35 35 35 35 35 34 34 34 33 33 33 32 31 30 30 30 30 30 29
30 31 32 32 32 32 32 32 32 33 33 34 34 35 35 35 35 34 34 34 34 34 34 34 34 35 35 35 35 35 36 36 35 34 34 34 34 33 32 31 31 31 30 30
30 31 31 32 32 32 32 32 32 32 33 34 34 34 34 34 35 35 35 35 35 35 34 34 34 35 35 35 35 34 35 35 36 35 35 34 33 33 32 32 31 31 31 31
30 31 32 32 32 32 32 32 32 32 33 34 34 35 35 35 35 35 36 36 35 35 35 34 34 34 34 33 34 34 34 35 35 35 35 34 34 34 33 33 32 32 31 32
30 30 30 31 32 32 33 33 33 33 33 34 35 36 36 36 36 36 36 36 35 34 35 35 35 34 34 34 34 35 35 35 35 35 36 36 36 36 35 34 34 34 33 34
29 29 29 29 30 31 32 33 33 33 33 34 35 35 35 35 35 35 35 35 35 35 35 35 35 34 34 34 35 35 35 36 36 36 36 36 36 36 36 36 35 35 35 34
27 28 29 29 29 30 31 31 31 31 32 32 33 34 34 34 34 35 34 34 35 35 36 36 35 35 34 34 34 34 35 36 36 35 36 36 36 36 36 37 36 36 36 35
24 24 25 26 27 29 29 29 29 30 30 30 30 31 32 33 33 33 33 33 34 35 35 35 36 35 35 34 34 34 34 35 35 35 35 35 36 36 36 37 37 37 36 36
22 23 23 24 25 26 27 27 27 27 28 28 28 29 29 29 29 29 29 30 30 31 33 34 34 34 34 33 33 32 32 32 33 33 33 34 35 35 35 35 35 35 35 35
22 22 21 22 21 22 23 24 24 25 25 26 26 27 27 27 26 26 26 26 27 28 29 29 30 30 30 31 32 32 32 32 32 32 32 33 33 33 32 32 32 33 33 33
19 19 19 19 19 19 20 20 21 22 23 23 23 23 24 23 23 23 22 23 24 25 26 26 26 26 26 26 26 28 29 30 31 31 30 31 31 30 30 31 31 32 32 32
16 17 17 17 17 17 17 17 18 18 19 19 18 18 19 18 19 19 20 21 21 21 21 22 22 23 23 24 24 24 25 25 26 26 27 28 29 29 29 30 30 30 30 29
14 15 15 15 15 15 14 14 14 15 15 15 15 15 15 16 17 18 19 19 19 19 19 20 20 21 21 22 23 24 24 24 25 25 26 27 28 29 29 29 29 28 28 28
13 14 13 13 12 12 12 12 12 13 13 13 14 14 14 15 16 17 18 18 18 18 18 18 19 20 21 21 22 22 23 23 24 24 24 25 26 26 26 26 27 27 28 27
Wind_Direction
245 246 249 253 253 255 257 258 260 264 266 267 266 268 267 266 267 268 268 264 262 262 262 262 265 266 268 269 269 272 275 277 277 276 274 272 273 272 273 273 273 274 277 277
252 252 252 254 255 257 258 259 259 261 263 265 268 266 265 265 266 266 265 262 263 262 263 263 264 265 267 267 268 269 272 274 275 273 273 274 274 272 273 274 272 273 275 275
254 257 258 257 258 258 258 258 259 260 263 265 264 264 263 263 263 264 264 262 261 260 262 264 263 263 265 265 267 270 273 274 274 273 273 274 275 274 274 273 272 273 275 273
255 257 259 259 258 258 258 257 258 260 262 265 265 264 262 261 260 260 261 261 260 260 261 263 263 262 263 264 266 270 273 273 274 274 273 272 273 274 273 273 273 274 273 272
257 260 262 262 260 259 259 258 257 258 260 262 263 263 262 261 260 260 260 260 259 258 259 260 262 263 262 264 266 269 271 272 273 273 273 273 272 272 272 272 274 275 274 273
258 259 260 263 263 260 260 259 257 258 259 260 260 259 258 259 260 259 258 260 260 259 260 260 262 263 263 262 264 268 270 271 271 274 275 275 273 271 272 274 275 275 274 274
258 260 261 262 263 262 260 260 260 260 260 259 257 257 257 258 259 260 259 258 259 258 258 259 260 261 262 262 264 266 269 269 269 272 274 274 273 272 272 272 272 273 273 273
259 259 260 262 262 260 260 261 261 261 260 260 258 257 257 257 257 257 258 257 258 258 257 257 258 259 261 262 264 263 266 269 269 271 272 273 273 273 273 272 272 272 273 275
258 259 260 260 261 261 260 260 260 260 260 261 259 257 257 256 256 257 257 257 257 258 258 258 257 258 260 262 264 265 265 268 271 270 273 275 275 275 274 274 273 275 274 275
259 258 260 261 262 261 260 260 260 259 259 259 258 257 256 255 256 256 257 258 258 257 256 257 257 258 260 261 262 263 264 266 268 269 272 274 273 273 274 274 274 276 276 275
259 260 261 260 261 262 262 261 259 257 257 257 257 256 256 256 255 255 256 256 257 256 255 257 257 259 259 259 260 261 263 265 266 266 269 271 271 271 272 273 273 274 276 276
260 260 260 260 261 262 262 261 260 258 257 256 255 255 256 256 255 255 255 256 256 257 257 257 257 258 258 258 258 259 261 263 265 266 268 268 269 270 270 272 272 273 274 276
260 260 260 260 260 261 261 261 260 259 258 257 256 255 255 255 255 255 255 254 255 256 257 257 257 257 257 257 257 258 259 261 262 264 266 267 269 269 270 271 271 271 273 274
259 259 259 259 260 261 260 259 259 259 259 258 257 256 256 254 253 254 255 255 255 256 257 257 256 255 255 255 257 258 258 260 262 263 264 266 268 269 270 271 272 273 273 273
258 259 260 260 261 261 261 261 260 260 260 259 258 257 256 254 253 253 255 255 256 258 258 258 258 256 256 256 257 258 259 260 261 263 266 267 268 269 269 270 271 272 272 274
260 260 261 261 260 260 260 261 261 260 260 259 257 257 256 256 254 253 254 256 257 258 258 259 260 259 259 260 259 259 260 260 261 264 266 267 268 268 268 269 270 270 272 275
262 262 262 263 262 260 259 260 260 259 259 258 256 255 255 255 256 255 253 255 257 258 259 260 260 260 261 261 259 259 260 260 260 263 265 266 267 267 267 269 271 271 271 273
265 266 264 264 263 263 262 262 262 261 261 260 258 256 255 256 257 256 256 257 259 258 258 258 259 260 259 259 259 260 260 261 262 263 265 265 266 267 266 267 269 270 270 272
268 267 267 268 266 264 263 263 263 262 262 261 260 259 257 257 256 256 257 258 259 258 258 258 258 259 259 259 260 260 260 261 262 263 264 264 265 266 265 266 268 269 270 272
270 270 269 268 268 267 264 263 263 263 263 262 261 261 260 258 258 258 258 258 259 258 258 257 256 257 258 259 260 261 261 261 261 262 263 264 264 265 265 266 268 269 270 271
270 270 270 271 269 268 267 265 264 265 264 263 263 262 261 260 260 260 258 258 258 257 257 257 257 257 257 258 260 261 261 262 262 262 264 264 264 264 265 265 267 268 268 269
274 275 273 273 272 269 268 266 264 265 265 265 265 265 264 262 262 262 262 261 260 260 259 259 258 257 257 258 259 260 261 261 262 263 264 263 262 262 263 264 266 267 268 269
277 278 277 276 274 271 268 265 265 266 267 268 268 266 265 264 263 262 261 260 261 261 261 261 260 259 259 259 259 260 260 261 261 262 263 261 260 261 261 262 264 266 268 269
278 276 277 277 277 276 272 267 267 267 268 268 267 266 264 263 263 262 261 262 260 259 258 258 258 258 258 259 259 259 259 261 261 262 262 260 260 261 261 261 264 266 267 268
278 278 277 276 277 278 274 269 267 268 268 267 267 266 264 263 262 261 262 262 261 259 257 255 254 254 254 255 257 259 260 262 262 264 263 261 261 262 262 262 263 264 265 267
282 280 279 278 279 277 273 269 267 266 266 267 266 264 264 265 264 265 264 263 263 259 256 255 254 254 254 255 256 258 260 262 264 265 266 264 263 262 262 263 264 265 266 268
283 280 278 278 276 273 269 265 264 264 265 264 264 265 267 269 269 267 264 263 262 259 257 256 255 255 256 258 259 260 261 263 264 265 265 264 262 261 261 261 262 263 265 267
Height
5865 5866 5867 5868 5869 5870 5871 5872 5874 5875 5875 5875 5875 5875 5875 5875 5875 5875 5875 5876 5876 5877 5877 5877 5877 5877 5877 5877 5876 5876 5875 5875 5874 5873 5872 5871 5871 5870 5869 5869 5869 5868 5867 5866
5857 5858 5859 5861 5862 5863 5864 5865 5865 5866 5867 5868 5868 5868 5868 5869 5869 5869 5869 5870 5870 5871 5871 5871 5872 5872 5872 5871 5871 5871 5870 5870 5869 5868 5867 5866 5865 5864 5864 5864 5864 5863 5862 5861
5850 5851 5851 5853 5855 5855 5856 5857 5858 5858 5860 5860 5860 5860 5861 5862 5862 5862 5863 5863 5864 5864 5865 5865 5866 5866 5866 5866 5866 5865 5865 5864 5863 5862 5861 5860 5860 5859 5859 5858 5858 5857 5857 5856
5842 5843 5842 5847 5846 5847 5848 5848 5849 5850 5851 5852 5853 5853 5853 5854 5855 5855 5856 5857 5857 5858 5858 5859 5859 5860 5860 5860 5860 5859 5859 5858 5857 5856 5856 5855 5854 5854 5853 5853 5852 5852 5851 5850
5833 5833 5834 5836 5837 5838 5839 5839 5840 5841 5842 5843 5844 5845 5846 5846 5847 5848 5848 5849 5850 5851 5851 5852 5852 5853 5853 5853 5853 5853 5852 5852 5851 5851 5850 5849 5849 5848 5847 5847 5846 5845 5845 5844
5823 5824 5826 5827 5827 5828 5830 5829 5831 5832 5833 5834 5835 5836 5838 5838 5839 5840 5841 5842 5842 5843 5844 5845 5846 5846 5846 5846 5846 5846 5845 5845 5845 5844 5844 5843 5842 5841 5841 5841 5840 5840 5839 5838
5814 5814 5815 5816 5817 5819 5821 5821 5821 5822 5823 5824 5825 5827 5828 5830 5831 5832 5833 5834 5835 5836 5837 5838 5838 5838 5838 5839 5839 5838 5838 5839 5838 5838 5837 5836 5835 5835 5834 5834 5834 5834 5833 5832
5804 5805 5807 5806 5807 5809 5810 5810 5811 5812 5813 5814 5815 5816 5818 5820 5822 5823 5825 5826 5827 5827 5828 5829 5830 5831 5831 5831 5831 5831 5832 5832 5832 5831 5830 5829 5829 5828 5827 5827 5827 5826 5826 5825
5795 5796 5795 5795 5796 5798 5799 5800 5801 5802 5803 5804 5805 5807 5809 5810 5812 5814 5815 5817 5818 5818 5819 5820 5821 5822 5822 5823 5823 5823 5824 5824 5824 5823 5823 5823 5822 5821 5821 5820 5820 5819 5819 5818
5784 5784 5785 5785 5786 5787 5788 5789 5790 5792 5793 5794 5796 5797 5799 5801 5802 5804 5805 5807 5808 5809 5810 5811 5812 5813 5813 5814 5814 5815 5816 5816 5816 5815 5815 5815 5815 5814 5814 5813 5813 5812 5811 5810
5774 5775 5775 5775 5776 5777 5778 5779 5780 5781 5783 5784 5786 5788 5789 5791 5793 5794 5796 5797 5798 5799 5800 5802 5802 5803 5804 5805 5805 5806 5807 5807 5807 5807 5807 5807 5807 5806 5806 5806 5805 5804 5804 5803
5764 5764 5765 5766 5766 5766 5767 5768 5770 5771 5772 5774 5775 5777 5779 5781 5783 5784 5786 5787 5788 5789 5790 5792 5792 5793 5794 5795 5796 5797 5798 5798 5798 5799 5799 5799 5798 5798 5797 5797 5797 5796 5795 5795
5753 5753 5754 5755 5756 5756 5757 5758 5759 5760 5762 5764 5765 5767 5769 5770 5772 5774 5775 5777 5778 5779 5780 5781 5782 5783 5784 5785 5786 5787 5788 5789 5789 5789 5790 5790 5789 5789 5788 5788 5787 5787 5787 5786
5742 5743 5743 5745 5746 5746 5747 5748 5749 5750 5751 5753 5754 5756 5757 5759 5761 5762 5764 5766 5767 5768 5769 5770 5771 5772 5773 5774 5775 5776 5777 5778 5779 5779 5780 5780 5780 5780 5779 5778 5778 5778 5778 5777
5732 5732 5734 5734 5735 5736 5736 5737 5738 5739 5740 5742 5743 5744 5746 5747 5749 5751 5753 5754 5756 5757 5758 5759 5760 5761 5762 5763 5764 5765 5766 5767 5768 5769 5769 5769 5770 5770 5770 5769 5769 5769 5768 5768
5722 5722 5723 5723 5724 5725 5726 5727 5728 5729 5730 5731 5732 5733 5735 5736 5738 5740 5741 5743 5744 5746 5747 5748 5749 5750 5750 5751 5752 5753 5754 5756 5757 5758 5759 5759 5759 5760 5760 5760 5760 5760 5759 5759
5712 5712 5712 5712 5713 5714 5715 5716 5717 5718 5718 5719 5720 5721 5723 5725 5726 5728 5730 5731 5732 5734 5735 5736 5737 5738 5739 5740 5740 5742 5743 5744 5746 5747 5748 5749 5749 5750 5750 5750 5750 5750 5750 5750
5702 5702 5702 5702 5702 5703 5704 5705 5706 5706 5706 5707 5708 5710 5711 5713 5715 5716 5718 5719 5720 5722 5723 5724 5725 5726 5727 5728 5729 5731 5732 5733 5735 5736 5737 5738 5738 5739 5739 5739 5740 5740 5740 5739
5692 5692 5692 5692 5692 5692 5693 5694 5694 5695 5695 5696 5697 5698 5700 5701 5702 5704 5705 5707 5709 5710 5712 5712 5714 5715 5716 5717 5719 5720 5721 5722 5723 5725 5726 5726 5727 5728 5728 5728 5729 5729 5729 5729
5683 5682 5682 5682 5682 5682 5682 5683 5684 5684 5685 5686 5686 5687 5689 5690 5691 5693 5694 5696 5697 5699 5700 5701 5702 5704 5705 5707 5708 5709 5710 5711 5711 5713 5714 5715 5715 5716 5717 5717 5718 5718 5718 5718
5674 5673 5673 5673 5672 5672 5672 5673 5674 5674 5675 5675 5676 5677 5678 5679 5680 5681 5682 5684 5686 5687 5688 5689 5691 5692 5694 5695 5696 5698 5699 5700 5700 5701 5702 5703 5704 5704 5705 5706 5706 5706 5707 5707
5666 5665 5665 5664 5663 5663 5663 5663 5664 5665 5665 5666 5666 5667 5668 5669 5670 5670 5671 5673 5675 5675 5677 5678 5679 5681 5683 5684 5685 5687 5688 5689 5689 5690 5691 5692 5692 5693 5694 5694 5695 5695 5695 5695
5659 5658 5657 5656 5655 5655 5654 5655 5655 5656 5656 5657 5657 5658 5658 5659 5660 5661 5662 5663 5664 5665 5667 5668 5669 5671 5672 5673 5675 5676 5677 5678 5679 5680 5680 5681 5682 5682 5683 5684 5684 5684 5684 5684
5652 5651 5650 5649 5649 5648 5648 5648 5648 5649 5649 5649 5650 5650 5651 5651 5652 5653 5654 5655 5656 5657 5658 5659 5660 5661 5663 5664 5665 5666 5667 5668 5669 5669 5670 5670 5671 5672 5672 5673 5674 5674 5674 5674
5646 5646 5644 5644 5643 5642 5642 5642 5642 5643 5643 5643 5644 5644 5645 5645 5646 5646 5647 5648 5648 5649 5650 5651 5652 5653 5654 5655 5656 5657 5658 5659 5659 5660 5660 5661 5661 5662 5662 5663 5663 5664 5664 5664
5641 5640 5639 5638 5638 5637 5637 5638 5638 5638 5638 5639 5639 5639 5639 5640 5640 5640 5641 5641 5642 5642 5643 5644 5645 5646 5647 5647 5648 5649 5650 5650 5651 5651 5651 5651 5652 5652 5653 5653 5654 5654 5654 5654
5637 5636 5635 5634 5634 5634 5634 5634 5634 5634 5635 5635 5635 5635 5635 5635 5635 5635 5635 5635 5636 5636 5637 5637 5638 5639 5640 5640 5641 5641 5642 5642 5642 5642 5642 5642 5643 5643 5643 5644 5644 5645 5645 5645